Kalamazoo, MI

7:27 AM EDT on July 28, 2017 (GMT -0400)
Kalamazoo-Battle Creek International

Weather History for KAZO - April, 2013

Change the Weather History Date:

Friday, April 5, 2013

  Actual Average Record
Temperature  
Mean Temperature 43 °F 45 °F  
Max Temperature 51 °F 55 °F 80 °F (1988)
Min Temperature 34 °F 35 °F 18 °F (1975)
Degree Days  
Heating Degree Days 22 20  
Month to date heating degree days 143 105  
Since 1 July heating degree days 5713 5762  
Cooling Degree Days 0 0  
Month to date cooling degree days 0 0  
Year to date cooling degree days 0 0  
Moisture  
Dew Point 20 °F    
Average Humidity 43    
Maximum Humidity 64    
Minimum Humidity 22    
Precipitation  
Precipitation 0.00 in 0.09 in 1.80 in (1985)
Month to date precipitation T 0.46  
Year to date precipitation 5.34 5.95  
Sea Level Pressure  
Sea Level Pressure 30.13 in    
Wind  
Wind Speed 8 mph (NNW)    
Max Wind Speed 15 mph    
Max Gust Speed 23 mph    
Visibility 10 miles    
Events      
T = Trace of Precipitation, MM = Missing Value Source: NWS Daily Summary

Daily Weather History Graph

Daily Weather History Graph

Search for Another Location

Airport or City:

Trip Planner

Search our weather history database for the weather conditions in past years. The results will help you decide how hot, cold, wet, or windy it might be!

Date:

Astronomy

Apr. 05, 2013 Rise Set
Actual Time 7:17 AM EDT 8:12 PM EDT
Civil Twilight 6:49 AM EDT 8:41 PM EDT
Nautical Twilight 6:15 AM EDT 9:15 PM EDT
Astronomical Twilight 5:39 AM EDT 9:50 PM EDT
Moon 4:29 AM EDT (4/5) 3:31 PM EDT (4/5)
Length of Visible Light 13h 52m
Length of Day
12h 55m
Waning Crescent, 24% of the Moon is Illuminated
Apr 5
Waning Crescent
Apr 10
New
Apr 18
First Quarter
Apr 25
Full
May 2
Last Quarter

Hourly Weather History & Observations

Time (EDT) Temp. Windchill Dew Point Humidity Pressure Visibility Wind Dir Wind Speed Gust Speed Precip Events Conditions
12:53 AM 43.0 °F 41.3 °F 19.9 °F 40% 29.96 in 10.0 mi WSW 3.5 mph - N/A   Partly Cloudy
1:53 AM 39.0 °F 35.7 °F 21.0 °F 49% 29.98 in 10.0 mi NW 4.6 mph - N/A   Clear
2:53 AM 37.9 °F 32.7 °F 24.1 °F 57% 29.98 in 10.0 mi North 6.9 mph - N/A   Clear
3:53 AM 36.0 °F 30.3 °F 25.0 °F 64% 29.99 in 9.0 mi North 6.9 mph - N/A   Clear
4:53 AM 37.9 °F 31.5 °F 26.1 °F 62% 30.02 in 9.0 mi NNE 9.2 mph - N/A   Clear
5:53 AM 37.0 °F 29.3 °F 27.0 °F 67% 30.06 in 8.0 mi NNE 11.5 mph - N/A   Clear
6:53 AM 35.1 °F 28.6 °F 25.0 °F 67% 30.10 in 10.0 mi NNE 8.1 mph - N/A   Clear
7:53 AM 35.1 °F 28.6 °F 24.1 °F 64% 30.14 in 10.0 mi NNE 8.1 mph - N/A   Clear
8:53 AM 37.0 °F 29.8 °F 21.0 °F 52% 30.16 in 10.0 mi NNE 10.4 mph - N/A   Clear
9:53 AM 39.9 °F 32.9 °F 21.0 °F 47% 30.17 in 10.0 mi North 11.5 mph - N/A   Clear
10:53 AM 42.1 °F 37.7 °F 19.0 °F 40% 30.19 in 10.0 mi Variable 6.9 mph - N/A   Clear
11:53 AM 43.0 °F 39.5 °F 15.1 °F 32% 30.19 in 10.0 mi NE 5.8 mph - N/A   Clear
12:53 PM 46.0 °F 41.0 °F 14.0 °F 28% 30.19 in 10.0 mi NNW 10.4 mph 18.4 mph N/A   Clear
1:53 PM 48.0 °F - 14.0 °F 26% 30.18 in 10.0 mi North 11.5 mph - N/A   Clear
2:53 PM 48.9 °F - 14.0 °F 25% 30.16 in 10.0 mi North 11.5 mph - N/A   Clear
3:53 PM 50.0 °F - 14.0 °F 24% 30.14 in 10.0 mi NW 9.2 mph - N/A   Clear
4:53 PM 50.0 °F - 14.0 °F 24% 30.14 in 10.0 mi NNW 9.2 mph - N/A   Clear
5:53 PM 48.9 °F - 12.9 °F 24% 30.14 in 10.0 mi NNW 6.9 mph - N/A   Clear
6:53 PM 46.0 °F 40.6 °F 23.0 °F 40% 30.16 in 10.0 mi NW 11.5 mph - N/A   Clear
7:53 PM 42.1 °F 35.2 °F 23.0 °F 47% 30.18 in 10.0 mi NW 12.7 mph - N/A   Clear
8:53 PM 39.0 °F 34.8 °F 23.0 °F 53% 30.19 in 10.0 mi NW 5.8 mph - N/A   Clear
9:53 PM 37.0 °F 30.4 °F 23.0 °F 57% 30.22 in 10.0 mi NNW 9.2 mph - N/A   Partly Cloudy
10:53 PM 36.0 °F - 21.9 °F 57% 30.21 in 10.0 mi Calm Calm - N/A   Scattered Clouds
11:53 PM 35.1 °F - 21.9 °F 59% 30.19 in 10.0 mi Calm Calm - N/A   Mostly Cloudy